Home > Weather > Einbeck > Past weeks

Flag for Germany Weather for the Past 2 Weeks in Einbeck, Lower Saxony, Germany

Now
64 °F

Sunny.


Feels Like: 64 °F
Forecast: 49 / 72 °F
Wind: 6 mph from Southeast

Location: Kassel / Calden

Current Time: May 6, 2016 at 9:52:48 PM

Latest Report: May 6, 2016 at 8:50 PM


Visibility: 10 mi

Pressure: 29.95 "Hg

Humidity: 52%

Dew Point: 46 °F

Location of EinbeckLocation

Historic Weather in Einbeck — Graph

°F

Einbeck Temperature Yesterday

Maximum temperature yesterday: 64 °F (at 5:20 PM)
Minimum temperature yesterday: 39 °F (at 7:20 AM)
Average temperature yesterday: 57 °F

High & Low Weather Summary for the Past Weeks

 TemperatureHumidityPressure
High73 °F (May 6, 3:50 PM)100% (Apr 24, 4:50 PM)30.39 "Hg (Apr 24, 4:50 PM)
Low32 °F (Apr 24, 7:20 PM)30% (May 2, 5:50 PM)29.45 "Hg (Apr 26, 1:20 PM)
Average49 °F64%30.00 "Hg
* Reported Apr 21 8:50 PM — May 6 8:50 PM, Einbeck, Weather by CustomWeather, © 2016

Note: Actual official high and low records may vary slightly from our data, if they occured in-between our weather recording intervals... More about our weather records

Advertising

Einbeck Weather History for the Previous 24 Hours

Scroll right to see more
 ConditionsComfort  
Time TempWeatherWind HumidityBarometerVisibility
8:50 PM
Fri, May 6
64 °FSunny.6 mph52%29.95 "Hg10 mi
8:20 PM66 °FSunny.9 mph52%29.95 "Hg10 mi
7:50 PM68 °FSunny.9 mph49%29.95 "Hg10 mi
7:20 PM70 °FSunny.12 mph43%29.95 "Hg10 mi
6:50 PM72 °FSunny.12 mph41%29.95 "Hg10 mi
6:20 PM73 °FPassing clouds.9 mph33%29.95 "HgN/A
5:50 PM73 °FSunny.14 mph31%29.95 "Hg10 mi
5:20 PM73 °FPassing clouds.13 mph36%29.95 "HgN/A
4:50 PM73 °FSunny.14 mph33%29.95 "Hg10 mi
4:20 PM73 °FSunny.17 mph33%29.98 "Hg10 mi
3:50 PM73 °FSunny.14 mph31%29.98 "Hg10 mi
3:20 PM72 °FSunny.14 mph36%29.98 "Hg10 mi
2:50 PM72 °FPassing clouds.12 mph38%30.01 "HgN/A
2:20 PM72 °FSunny.14 mph33%30.01 "Hg10 mi
1:50 PM70 °FSunny.15 mph40%30.01 "Hg10 mi
1:20 PM70 °FSunny.16 mph40%30.01 "Hg10 mi
12:50 PM68 °FPassing clouds.16 mph43%30.04 "HgN/A
12:20 PM68 °FSunny.14 mph46%30.04 "Hg10 mi
11:50 AM66 °FPassing clouds.9 mph49%30.04 "HgN/A
11:20 AM66 °FSunny.10 mph49%30.07 "Hg10 mi
10:50 AM64 °FSunny.12 mph52%30.07 "Hg10 mi
10:20 AM63 °FSunny.13 mph52%30.07 "Hg10 mi
9:50 AM61 °FSunny.13 mph59%30.07 "Hg10 mi
9:20 AM59 °FSunny.15 mph63%30.07 "Hg10 mi
8:50 AM57 °FSunny.10 mph72%30.09 "Hg10 mi
8:20 AM55 °FSunny.7 mph72%30.09 "Hg10 mi
7:50 AM54 °FSunny.7 mph77%30.09 "Hg10 mi
7:20 AM52 °FSunny.8 mph77%30.09 "Hg10 mi
9:20 PM
Thu, May 5
55 °FSunny.5 mph59%30.15 "Hg10 mi
Weather by CustomWeather, © 2016

See weather overviewHow to use our weather pages